CAPE
1604 1621 1655 1583 1487 1382 1255 1064 1014 938 1029 1079 1076 1023 740 733 564 452 335 157 156 259 261 468 66 491 334 121 44 10 3 2 0 0 0 0 1 5 3 2 3 3 3
1504 1456 1461 1399 1351 1267 1117 1013 925 852 870 817 801 718 793 617 331 133 75 31 84 103 256 516 343 465 327 157 19 3 4 2 4 0 0 0 2 2 3 2 2 2 5
1264 1344 1370 1270 1085 1037 971 798 662 580 636 518 398 505 701 590 243 71 15 21 34 49 60 279 369 386 324 201 15 4 11 6 7 10 3 3 3 4 2 3 2 3 3
1278 1231 1277 1213 888 746 798 682 441 412 408 405 381 403 573 347 79 22 12 17 29 23 41 197 154 188 214 203 66 13 17 3 7 8 5 3 5 3 2 2 5 3 2
1203 1182 1268 1127 745 633 631 597 446 417 328 229 353 398 527 197 18 1 15 7 30 42 41 35 37 140 154 117 50 29 17 5 11 10 7 9 6 4 3 2 5 2 4
1123 1214 1251 1008 712 540 524 448 401 304 240 243 173 169 210 126 49 21 3 4 15 34 23 18 76 145 68 41 2 32 23 14 15 13 10 12 8 4 6 3 6 6 7
1057 1170 1153 940 715 642 430 403 322 228 170 143 137 118 35 57 39 34 30 20 37 22 19 24 58 110 74 36 9 18 28 26 16 17 17 19 9 5 7 4 3 5 3
887 1024 1039 796 601 514 370 355 285 246 166 97 69 23 12 5 6 15 35 48 53 30 7 15 27 36 42 13 9 13 20 29 19 16 21 9 11 5 7 3 4 3 3
878 930 901 649 493 435 421 448 319 304 172 73 46 29 2 0 0 3 2 15 29 25 11 1 14 19 2 1 0 5 6 16 22 29 19 7 6 6 9 8 7 3 6
892 874 787 613 520 571 566 427 364 284 161 109 44 25 0 1 11 0 2 2 21 10 4 3 0 8 0 0 0 0 0 5 17 21 13 14 10 4 4 4 2 3 7
966 817 741 705 731 656 519 381 234 195 148 97 64 18 2 0 0 0 0 0 0 2 3 1 1 1 4 0 0 0 0 1 6 16 16 13 14 6 4 5 3 2 5
1031 891 743 732 641 661 511 371 166 170 119 84 64 47 8 0 0 0 0 1 2 0 1 1 1 0 2 1 0 0 0 0 0 8 15 9 10 9 5 3 2 4 4
1042 869 796 698 819 656 446 260 144 109 83 58 22 25 14 3 1 0 9 8 2 1 1 1 1 1 0 0 0 0 0 0 0 0 0 7 13 14 10 9 9 8 4
859 708 659 654 715 441 226 204 185 112 56 27 15 1 1 1 2 0 1 18 5 1 1 0 1 0 0 0 0 0 0 0 0 0 0 0 0 0 8 18 18 16 12
658 452 479 427 415 222 168 168 111 117 64 5 1 1 2 6 23 3 0 0 1 1 1 0 0 1 0 0 10 0 0 0 0 0 0 0 0 0 0 0 0 0 0
508 335 277 243 164 98 124 89 92 82 27 1 0 2 7 21 19 26 28 11 0 0 2 0 0 0 0 1 18 8 0 0 0 0 0 0 0 0 0 0 0 0 0
187 155 126 118 128 73 75 73 76 20 1 3 4 4 10 35 17 24 19 4 2 7 4 0 0 0 0 0 9 26 23 3 0 0 0 0 0 0 0 0 0 0 0
109 86 50 56 29 28 25 21 9 6 5 8 6 4 7 12 13 24 3 2 2 1 6 0 1 0 0 0 53 51 2 3 0 0 0 0 0 0 0 0 0 0 0
78 51 37 17 3 0 8 5 1 1 2 3 3 5 2 0 2 3 2 1 2 1 0 0 0 0 0 1 26 2 2 6 7 6 5 5 5 4 4 4 3 2 3
26 15 2 1 0 0 0 0 0 1 0 1 0 0 0 0 0 5 2 1 1 1 1 0 0 0 0 8 0 0 2 7 8 6 6 6 5 5 5 5 6 7 7
1 2 0 0 0 0 0 0 1 0 0 0 0 0 1 8 6 0 2 2 1 2 2 1 1 1 1 2 0 3 4 9 7 6 7 5 4 4 3 3 3 2 2
2 5 1 0 1 3 3 0 0 0 0 0 0 2 4 2 8 12 4 1 0 1 2 2 1 1 0 1 0 1 3 3 2 2 5 4 2 1 1 2 3 1 1
11 9 9 6 7 9 6 2 1 1 3 5 4 5 3 3 2 3 10 7 8 6 1 0 0 1 0 0 0 1 5 3 1 2 1 4 2 2 1 1 1 1 0
5 8 13 12 10 6 5 7 6 7 8 7 6 6 8 7 7 2 8 12 11 10 9 13 9 12 6 4 0 1 1 6 4 0 0 4 2 2 0 1 2 2 2
2 6 5 5 6 5 5 5 5 6 8 7 5 6 5 6 8 7 2 6 11 12 7 6 2 1 5 7 7 0 3 0 3 0 0 1 1 1 0 0 0 1 1
2 2 5 3 5 6 5 1 1 3 6 6 4 5 6 7 4 3 4 2 4 3 3 0 1 1 2 1 0 0 2 1 1 0 0 0 0 0 0 0 0 1 1
CIN
-111 -98 -73 -33 -12 -13 -10 -20 -16 -16 -7 -4 -4 -6 -32 -24 -34 -49 -54 -76 -41 -7 -13 -0 -12 -0 -0 -27 -20 -23 -2 -0 -0 -0 -0 -0 -1 -1 -3 -4 -5 -2 -2
-117 -132 -114 -97 -38 -19 -15 -19 -21 -15 -8 -10 -11 -19 -4 -16 -54 -75 -82 -83 -54 -21 -3 -0 -0 -0 -2 -8 -27 -6 -5 -1 -0 -0 -0 -0 -3 -3 -2 -3 -2 -1 -1
-183 -139 -143 -138 -107 -63 -33 -23 -21 -12 -8 -16 -36 -25 -3 -14 -26 -68 -76 -83 -63 -57 -27 -0 -0 -0 -4 -1 -32 -13 -12 -14 -6 -2 -1 -1 -1 -4 -1 -4 -1 -3 -2
-187 -172 -145 -147 -171 -128 -66 -37 -46 -16 -8 -6 -22 -29 -7 -22 -57 -58 -62 -44 -41 -28 -28 -2 -0 -5 -1 -0 -0 -6 -18 -19 -6 -2 -1 -1 -1 -2 -1 -1 -1 -1 -0
-184 -190 -151 -156 -187 -165 -113 -68 -50 -23 -10 -16 -8 -13 -1 -31 -64 -26 -47 -49 -13 -19 -8 -1 -44 -9 -4 -1 -0 -0 -12 -18 -6 -5 -2 -2 -1 -1 -0 -0 -0 -0 -0
-194 -158 -149 -170 -176 -185 -131 -116 -73 -51 -29 -14 -24 -21 -13 -15 -41 -46 -35 -65 -48 -34 -17 -4 -17 -6 -14 -11 -2 -2 -5 -8 -5 -4 -3 -3 -2 -1 -0 -1 -0 -0 -1
-171 -150 -161 -177 -186 -177 -167 -138 -101 -83 -60 -29 -8 -4 -25 -1 -11 -22 -1 -13 -5 -23 -51 -28 -2 -0 -7 -6 -8 -6 -0 -0 -6 -3 -1 -4 -4 -5 -1 -1 -0 -0 -1
-213 -160 -177 -208 -222 -184 -177 -150 -120 -94 -86 -74 -34 -58 -64 -20 -24 -6 -0 -5 -7 -15 -48 -40 -5 -2 -1 -7 -5 -11 -10 -1 -0 -0 -2 -4 -6 -3 -3 -0 -0 -0 -1
-253 -213 -185 -232 -238 -204 -177 -124 -110 -83 -82 -79 -40 -44 -29 -3 -0 -1 -5 -13 -17 -47 -24 -16 -7 -1 -1 -0 -0 -10 -10 -6 -4 -1 -1 -7 -5 -2 -1 -1 -0 -0 -0
-211 -216 -218 -228 -223 -173 -130 -129 -101 -94 -92 -62 -41 -44 -0 -3 -5 -0 -0 -0 -28 -38 -2 -45 -0 -32 -13 -0 -0 -0 -0 -6 -4 -6 -7 -9 -9 -4 -1 -0 -0 -0 -0
-224 -205 -199 -181 -159 -167 -136 -128 -127 -113 -94 -55 -43 -50 -24 -0 -0 -31 -0 -0 -0 -29 -1 -0 -0 -0 -0 -0 -0 -0 -0 -6 -12 -4 -8 -9 -7 -7 -3 -0 -2 -3 -2
-184 -186 -182 -146 -151 -147 -138 -130 -148 -123 -109 -74 -51 -29 -41 -0 -0 -0 -0 -2 -0 -0 -0 -0 -0 -0 -0 -0 -0 -0 -0 -0 -0 -13 -8 -7 -6 -7 -5 -7 -8 -5 -6
-170 -180 -181 -148 -154 -176 -145 -137 -168 -145 -114 -89 -75 -57 -62 -11 -8 -4 -8 -3 -0 -0 -0 -0 -0 -19 -0 -0 -0 -0 -0 -0 -0 -0 -0 -9 -7 -6 -5 -6 -5 -5 -7
-243 -220 -184 -170 -189 -182 -166 -142 -136 -156 -133 -111 -105 -3 -4 -0 -5 -0 -1 -0 -5 -0 -0 -0 -0 -0 -0 -0 -0 -0 -0 -0 -0 -0 -0 -0 -0 -1 -8 -7 -5 -4 -4
-195 -217 -180 -173 -175 -182 -167 -141 -200 -164 -132 -49 -0 -3 -0 -15 -8 -6 -0 -0 -10 -2 -0 -0 -0 -0 -0 -0 -70 -0 -0 -0 -0 -0 -0 -0 -0 -0 -0 -0 -0 -0 -0
-161 -190 -181 -173 -205 -179 -163 -193 -196 -181 -176 -11 -0 -25 -11 -0 -9 -2 -2 -6 -5 -1 -0 -0 -0 -0 -0 -0 -69 -79 -0 -0 -0 -0 -0 -0 -0 -0 -0 -0 -0 -0 -0
-234 -203 -199 -200 -207 -156 -177 -177 -179 -247 -159 -3 -4 -4 -3 -12 -5 -9 -6 -11 -0 -1 -0 -0 -0 -0 -0 -0 -45 -85 -58 -77 -0 -0 -0 -0 -0 -0 -0 -0 -0 -0 -0
-202 -227 -256 -232 -226 -171 -211 -230 -233 -268 -144 -8 -8 -2 -3 -1 -6 -4 -6 -29 -0 -0 -1 -0 -0 -0 -0 -0 -24 -59 -27 -0 -0 -0 -0 -0 -0 -0 -0 -0 -0 -0 -0
-236 -247 -209 -207 -176 -0 -239 -245 -26 -0 -0 -0 -0 -0 -0 -0 -42 -14 -22 -0 -0 -0 -0 -0 -0 -0 -0 -5 -40 -0 -0 -0 -0 -0 -0 -0 -0 -0 -0 -0 -0 -0 -0
-221 -245 -184 -0 -0 -0 -46 -0 -0 -0 -0 -0 -0 -0 -0 -0 -0 -12 -3 -0 -0 -0 -0 -0 -0 -0 -0 -46 -0 -0 -0 -0 -0 -0 -0 -0 -0 -0 -0 -0 -0 -0 -0
-0 -0 -0 -0 -0 -0 -0 -0 -0 -0 -0 -0 -0 -0 -0 -0 -0 -0 -0 -1 -0 -0 -0 -0 -0 -0 -0 -0 -0 -0 -0 -0 -0 -0 -0 -0 -0 -0 -0 -0 -0 -0 -0
-0 -0 -0 -0 -0 -0 -0 -0 -0 -0 -0 -0 -0 -0 -0 -0 -0 -0 -0 -0 -0 -0 -0 -0 -0 -0 -0 -0 -0 -0 -0 -0 -0 -0 -0 -0 -0 -0 -0 -0 -0 -0 -0
-0 -0 -0 -0 -0 -0 -0 -0 -0 -0 -0 -0 -0 -0 -0 -0 -0 -0 -0 -0 -0 -0 -0 -0 -0 -0 -0 -0 -0 -0 -0 -0 -0 -0 -0 -0 -0 -0 -0 -0 -0 -0 -0
-0 -0 -0 -0 -0 -0 -0 -0 -0 -0 -0 -0 -0 -0 -0 -0 -0 -0 -0 -0 -0 -0 -0 -0 -0 -0 -0 -0 -0 -0 -0 -0 -0 -0 -0 -0 -0 -0 -0 -0 -0 -0 -0
-0 -0 -0 -0 -0 -0 -0 -0 -0 -0 -0 -0 -0 -0 -0 -0 -0 -0 -0 -0 -0 -0 -0 -0 -0 -0 -0 -0 -0 -0 -0 -0 -0 -0 -0 -0 -0 -0 -0 -0 -0 -0 -0
-0 -0 -0 -0 -0 -0 -0 -0 -0 -0 -0 -0 -0 -0 -0 -0 -0 -0 -0 -0 -0 -0 -0 -0 -0 -0 -0 -0 -0 -0 -0 -0 -0 -0 -0 -0 -0 -0 -0 -0 -0 -0 -0
Wind_Speed
7 6 6 6 6 7 6 4 4 2 2 3 4 4 7 10 11 14 20 22 27 16 8 10 9 9 7 6 4 4 3 3 2 3 4 4 4 3 3 3 3 4 4
9 9 8 7 8 8 6 4 3 3 3 5 5 6 7 11 10 17 21 20 26 31 12 15 16 12 10 6 6 5 4 6 1 2 3 5 2 2 2 2 3 3 4
11 10 9 8 8 8 6 6 4 4 5 7 7 10 6 10 14 13 15 18 20 29 34 17 14 11 8 7 7 4 4 3 1 1 2 4 2 2 2 2 2 3 4
13 11 11 10 9 9 7 6 5 4 5 7 9 8 6 9 17 16 16 15 24 31 35 23 13 10 11 8 7 5 4 3 2 1 1 4 1 1 1 1 1 2 2
16 14 13 12 9 10 8 6 4 4 4 8 9 8 7 9 16 15 16 15 19 26 34 22 10 9 9 8 8 7 5 5 2 2 3 5 2 2 1 0 0 1 2
19 17 16 14 11 11 9 6 4 4 6 8 9 8 7 11 20 16 19 10 26 31 34 26 13 9 9 9 9 10 8 5 4 3 4 5 4 3 3 2 2 3 3
21 20 18 16 13 12 9 6 5 5 8 8 10 11 9 17 20 22 13 16 21 27 33 29 25 18 14 10 10 11 9 8 7 6 5 4 4 3 3 3 3 3 3
23 23 21 18 16 14 10 7 5 7 10 5 11 15 15 22 16 18 15 13 14 20 29 29 32 21 15 14 14 13 13 12 10 7 6 5 4 4 5 5 4 4 4
24 23 23 21 19 16 12 9 7 5 10 9 7 14 17 21 18 20 18 17 16 20 26 29 31 25 19 15 16 15 13 13 12 10 8 7 6 6 7 7 6 5 8
26 23 23 23 21 19 15 11 8 7 10 11 10 10 16 18 21 21 22 17 16 20 23 23 30 27 22 16 17 17 14 13 14 12 10 9 8 7 6 7 6 6 6
27 24 24 23 24 21 17 13 11 9 10 13 11 14 14 19 23 22 24 22 22 20 19 18 25 27 21 18 18 17 15 15 16 14 11 10 9 9 8 7 7 6 6
27 25 24 25 25 20 18 15 13 11 12 12 11 12 13 16 19 22 24 24 23 23 18 15 25 29 24 21 19 19 17 16 16 17 14 13 11 11 9 9 9 8 7
28 25 25 22 22 23 19 16 14 12 11 12 12 12 12 12 20 21 24 24 25 24 22 19 24 28 27 23 20 18 18 19 18 17 17 16 16 14 13 12 11 10 10
28 27 27 25 22 20 19 16 15 13 13 13 11 12 14 13 15 20 22 22 28 26 24 23 22 28 29 26 23 18 18 17 19 18 15 16 16 18 17 15 14 14 13
30 28 26 25 24 21 19 17 15 14 12 11 12 12 14 16 16 18 20 20 19 30 29 25 22 24 26 25 24 20 21 20 17 16 16 15 16 18 19 18 17 18 17
28 26 25 24 21 19 18 17 16 15 14 14 12 13 15 17 19 20 22 21 19 25 35 26 23 25 21 24 26 21 20 20 19 17 16 17 17 17 21 23 23 21 20
25 23 22 20 18 20 20 18 18 17 15 13 12 13 14 17 21 23 24 26 23 25 27 26 25 24 23 26 26 19 19 20 20 19 18 19 18 19 20 19 21 19 21
22 22 21 19 17 20 21 19 16 14 15 15 18 18 19 21 24 26 23 22 24 21 22 26 25 21 22 23 25 20 17 16 18 18 16 16 16 17 16 16 17 17 17
19 20 19 18 18 18 18 17 16 17 18 19 20 22 23 24 29 24 19 23 21 22 23 25 24 21 21 20 20 19 16 15 13 12 11 11 12 12 12 13 14 15 16
19 17 18 17 14 17 18 16 16 16 18 19 21 22 25 28 33 24 15 22 24 23 22 25 24 20 19 17 18 18 16 15 14 12 11 10 10 10 12 13 14 16 16
16 17 12 14 13 17 17 15 14 16 15 16 19 20 22 25 29 21 12 14 14 22 29 25 21 23 21 17 19 17 17 15 13 14 12 12 12 13 14 15 15 15 16
15 10 9 11 13 17 20 18 16 12 12 14 17 19 20 22 23 23 18 16 18 23 22 23 22 23 20 17 18 15 17 17 19 16 14 16 16 17 16 14 14 14 12
8 6 7 9 11 13 14 13 12 11 12 14 16 19 19 19 19 20 18 15 17 20 20 26 19 20 23 20 18 19 19 20 20 15 13 17 15 15 15 14 12 11 11
3 3 1 4 6 10 11 11 11 11 12 15 17 18 18 18 18 16 15 13 16 16 16 15 15 18 15 16 15 21 17 15 12 15 18 21 18 17 15 14 12 12 13
7 4 4 4 6 9 11 10 11 12 13 15 17 18 17 17 17 14 13 11 13 14 11 9 7 9 10 13 15 12 14 15 22 21 21 20 17 15 15 16 16 13 14
8 4 7 8 9 10 11 10 11 13 15 16 16 17 17 15 15 15 12 11 11 13 12 11 12 13 14 16 16 16 15 15 16 19 19 19 16 16 19 19 18 17 17
Wind_Direction
266 275 282 289 290 296 295 294 296 262 236 250 274 269 287 302 301 302 290 280 268 259 213 195 224 179 191 188 229 266 289 308 27 43 41 31 338 18 22 25 28 25 28
270 268 275 282 289 292 297 291 278 269 264 283 270 276 283 297 305 288 294 284 279 260 234 191 180 167 168 215 242 266 277 287 339 16 59 84 358 47 36 31 49 39 36
261 264 265 274 281 292 295 302 297 293 285 292 281 287 281 297 300 295 286 299 277 270 251 228 174 206 194 230 248 248 262 273 275 85 79 88 88 82 43 44 54 62 63
252 256 261 267 278 285 293 294 295 285 278 287 288 283 277 303 293 287 306 309 279 259 250 249 223 184 237 239 243 244 254 257 260 146 95 122 126 284 308 2 57 68 57
248 248 256 266 272 283 284 291 288 271 266 289 285 282 278 299 291 293 305 318 278 261 248 233 225 186 231 246 243 243 244 249 222 198 148 138 166 253 264 229 319 347 359
245 246 254 260 264 276 283 286 282 269 283 289 294 284 282 299 291 293 288 312 265 251 251 253 254 236 238 242 245 253 252 236 229 216 179 158 159 238 257 259 276 294 310
250 244 250 253 256 263 268 263 296 284 295 295 302 296 288 292 292 285 289 284 277 266 257 259 254 257 258 245 249 250 242 243 247 245 217 193 190 227 228 239 264 284 300
251 247 245 245 252 261 260 257 265 306 299 269 297 299 301 291 293 289 277 273 281 286 269 260 250 257 255 257 259 249 249 253 252 232 224 224 213 230 255 257 256 267 283
247 244 244 245 247 253 253 250 247 265 292 286 274 301 302 294 298 289 279 275 280 285 278 264 253 255 253 256 260 252 246 248 247 241 237 230 214 227 251 263 265 269 286
247 243 241 242 243 251 254 252 251 251 284 287 284 273 296 302 296 295 285 282 280 285 286 271 250 247 249 253 257 255 244 241 243 238 237 234 233 236 240 257 266 274 276
242 240 242 242 244 250 254 251 251 256 272 282 275 291 288 292 288 292 288 288 287 288 288 270 247 246 246 250 257 255 243 241 245 242 240 233 235 234 243 248 254 257 263
242 237 239 244 244 246 250 250 253 250 271 278 272 281 280 286 283 284 286 290 290 291 288 276 249 244 249 252 256 254 242 240 245 252 249 250 244 244 241 245 257 262 264
246 235 233 239 241 246 251 251 255 260 265 272 276 279 281 275 285 284 285 288 289 289 287 279 257 247 249 254 256 249 245 244 246 250 252 254 259 258 258 260 265 270 275
245 241 236 239 241 246 252 251 257 266 268 275 269 273 284 282 281 283 285 286 285 283 283 281 270 247 248 254 256 247 249 235 245 248 247 250 253 262 267 270 273 278 281
247 242 237 239 245 250 252 251 259 266 274 271 273 277 279 283 283 283 281 281 282 280 274 275 275 248 247 255 255 256 252 253 240 238 244 246 253 261 267 270 274 280 285
244 241 237 239 243 251 248 254 265 272 276 283 279 279 281 285 286 286 281 279 274 277 275 272 267 257 246 257 256 254 252 252 250 241 241 249 255 261 270 274 278 281 287
241 235 237 239 243 250 254 259 268 278 281 283 285 285 281 285 289 286 282 278 274 274 274 272 268 259 253 253 255 251 256 257 264 259 259 262 265 269 272 275 278 284 289
239 238 234 237 241 250 254 262 269 277 282 286 291 294 294 296 291 289 280 268 274 266 262 267 262 259 255 253 251 249 254 262 266 268 265 266 269 272 273 277 283 288 292
236 238 237 237 240 248 255 263 272 281 287 291 295 298 300 302 295 291 279 273 267 262 258 259 260 256 260 250 245 249 256 260 267 270 269 271 274 278 280 284 289 294 300
244 236 234 235 239 249 259 267 275 283 289 294 299 302 302 302 293 298 285 274 268 256 250 253 254 250 253 250 240 242 252 256 257 267 276 272 276 285 291 295 299 301 303
250 231 220 240 247 251 262 270 279 285 292 300 303 308 310 311 307 308 296 276 253 248 251 252 247 250 245 241 234 244 248 249 261 264 261 274 279 287 294 304 305 305 308
242 213 232 232 238 255 271 273 278 284 297 304 307 310 315 320 324 329 333 308 284 255 253 249 248 240 236 237 245 237 240 245 258 264 266 274 283 285 296 304 308 311 315
220 241 230 228 242 272 282 277 281 291 301 306 309 312 316 324 332 333 338 333 296 282 273 261 250 250 248 244 251 246 245 250 261 257 261 278 284 288 296 305 310 310 308
291 232 313 264 273 295 290 288 293 304 310 311 311 314 318 321 329 339 345 347 340 315 290 275 267 269 259 263 254 262 255 255 271 272 277 276 284 285 297 302 305 308 308
334 333 341 328 321 307 304 302 302 307 312 314 315 316 317 322 327 335 347 353 350 354 338 345 332 311 298 296 283 261 252 259 274 278 284 278 279 282 296 298 302 311 313
332 344 17 357 342 323 322 319 317 314 309 311 316 321 322 325 333 334 338 339 339 327 328 333 321 318 310 309 303 286 277 272 271 279 286 285 273 285 289 295 299 303 309